FW4678 Weather Reports


Display with metric or nautical units.
time (UTC)temp
F
wind
direction
speed
MPH
gust
MPH
rain 1hr
in
rain 24hr
in
rain mn
in
humidity
%
barometer
mb
20240623182534 86 250 13.0 19.0 0.00 0.00 0.00 70 1014.7
20240623182031 86 283 11.0 19.0 0.00 0.00 0.00 69 1014.5
20240623181537 86 242 12.0 17.0 0.00 0.00 0.00 69 1014.9
20240623181033 86 240 11.0 17.0 0.00 0.00 0.00 70 1014.7
20240623180531 86 220 9.0 16.0 0.00 0.00 0.00 70 1014.9
20240623180043 86 237 9.0 17.0 0.00 0.00 0.00 68 1014.8
20240623175531 86 253 10.0 17.0 0.00 0.00 0.00 71 1014.9
20240623175030 85 231 8.0 21.0 0.00 0.00 0.00 70 1014.9
20240623174532 85 214 10.0 21.0 0.00 0.00 0.00 71 1014.9
20240623174031 85 221 11.0 19.0 0.00 0.00 0.00 72 1015.0
20240623173532 85 240 10.0 18.0 0.00 0.00 0.00 70 1015.1
20240623173037 86 215 9.0 18.0 0.00 0.00 0.00 71 1015.1
20240623172530 86 212 9.0 17.0 0.00 0.00 0.00 70 1015.2
20240623172030 86 198 8.0 20.0 0.00 0.00 0.00 71 1015.1
20240623171537 86 214 12.0 20.0 0.00 0.00 0.00 69 1015.2
20240623171032 86 241 11.0 19.0 0.00 0.00 0.00 68 1015.1
20240623170532 87 218 11.0 18.0 0.00 0.00 0.00 69 1015.1
20240623170038 86 239 9.0 16.0 0.00 0.00 0.00 68 1015.3
20240623165531 86 273 10.0 15.0 0.00 0.00 0.00 68 1015.3
20240623165033 86 220 8.0 15.0 0.00 0.00 0.00 69 1015.3
20240623164534 86 210 8.0 15.0 0.00 0.00 0.00 69 1015.3
20240623164031 86 197 8.0 14.0 0.00 0.00 0.00 68 1015.5
20240623163532 86 198 8.0 16.0 0.00 0.00 0.00 70 1015.5
20240623163032 86 206 7.0 16.0 0.00 0.00 0.00 68 1015.6
20240623162531 86 221 10.0 16.0 0.00 0.00 0.00 68 1015.7
20240623162032 86 250 9.0 14.0 0.00 0.00 0.00 69 1015.8
20240623161535 86 215 10.0 14.0 0.00 0.00 0.00 68 1015.8
20240623161029 86 203 8.0 17.0 0.00 0.00 0.00 71 1015.9
20240623160530 86 243 9.0 17.0 0.00 0.00 0.00 69 1015.9
20240623160044 86 143 7.0 14.0 0.00 0.00 0.00 70 1016.0
20240623155531 86 125 8.0 17.0 0.00 0.00 0.00 70 1016.0
20240623155032 86 240 8.0 17.0 0.00 0.00 0.00 69 1016.0
20240623154535 85 243 7.0 17.0 0.00 0.00 0.00 71 1016.0
20240623154031 85 223 9.0 17.0 0.00 0.00 0.00 71 1016.1
20240623153532 84 230 7.0 14.0 0.00 0.00 0.00 73 1016.2
20240623153034 84 227 9.0 14.0 0.00 0.00 0.00 72 1016.1
20240623152531 85 227 7.0 12.0 0.00 0.00 0.00 71 1016.2
20240623152034 85 205 6.0 10.0 0.00 0.00 0.00 71 1016.2
20240623151538 85 288 6.0 15.0 0.00 0.00 0.00 72 1016.1
20240623151032 85 262 8.0 15.0 0.00 0.00 0.00 72 1016.1
20240623150532 85 216 7.0 19.0 0.00 0.00 0.00 70 1016.1
20240623150033 85 245 8.0 19.0 0.00 0.00 0.00 70 1016.2
20240623145531 85 243 7.0 16.0 0.00 0.00 0.00 71 1016.1
20240623145040 85 229 12.0 16.0 0.00 0.00 0.00 70 1016.1
20240623144534 85 257 5.0 14.0 0.00 0.00 0.00 74 1016.1
20240623144030 84 185 9.0 14.0 0.00 0.00 0.00 73 1016.2
20240623143531 84 233 8.0 13.0 0.00 0.00 0.00 73 1016.3
20240623143037 84 262 9.0 13.0 0.00 0.00 0.00 72 1016.3
20240623142531 84 257 7.0 13.0 0.00 0.00 0.00 73 1016.2
20240623142028 84 236 5.0 15.0 0.00 0.00 0.00 74 1016.4
20240623141539 84 220 9.0 16.0 0.00 0.00 0.00 73 1016.3
20240623141031 84 154 8.0 16.0 0.00 0.00 0.00 74 1016.5
20240623140530 84 212 10.0 16.0 0.00 0.00 0.00 73 1016.6
20240623140032 84 228 8.0 14.0 0.00 0.00 0.00 74 1016.5
20240623135530 84 243 8.0 15.0 0.00 0.00 0.00 73 1016.4
20240623135031 84 220 10.0 15.0 0.00 0.00 0.00 74 1016.4
20240623134530 84 195 8.0 15.0 0.00 0.00 0.00 73 1016.5
20240623134028 84 248 9.0 15.0 0.00 0.00 0.00 73 1016.5
20240623133530 84 229 9.0 15.0 0.00 0.00 0.00 74 1016.5
20240623133031 84 208 8.0 13.0 0.00 0.00 0.00 75 1016.5
20240623132529 83 248 8.0 12.0 0.00 0.00 0.00 75 1016.6
20240623132031 83 285 8.0 13.0 0.00 0.00 0.00 76 1016.5
20240623131534 83 212 9.0 13.0 0.00 0.00 0.00 76 1016.6
20240623131030 83 236 9.0 14.0 0.00 0.00 0.00 77 1016.6
20240623130533 82 250 9.0 14.0 0.00 0.00 0.00 77 1016.5
20240623130033 82 276 5.0 12.0 0.00 0.00 0.00 79 1016.6
20240623125528 82 238 7.0 11.0 0.00 0.00 0.00 79 1016.7
20240623125028 82 254 7.0 12.0 0.00 0.00 0.00 79 1016.9
20240623124546 82 242 7.0 14.0 0.00 0.00 0.00 80 1017.0
20240623124030 82 231 10.0 15.0 0.00 0.00 0.00 80 1016.9
20240623123531 82 217 6.0 15.0 0.00 0.00 0.00 81 1016.9
20240623123045 82 226 5.0 10.0 0.00 0.00 0.00 82 1017.0
20240623122531 81 329 5.0 12.0 0.00 0.00 0.00 83 1017.1
20240623122030 81 258 6.0 12.0 0.00 0.00 0.00 83 1017.1
20240623121535 81 235 6.0 10.0 0.00 0.00 0.00 85 1017.1
20240623121032 80 214 5.0 8.0 0.00 0.00 0.00 85 1017.2
20240623120533 80 291 3.0 8.0 0.00 0.00 0.00 86 1017.2
20240623120035 80 294 4.0 10.0 0.00 0.00 0.00 86 1017.2
20240623115530 79 238 5.0 10.0 0.00 0.00 0.00 87 1017.2
20240623115028 79 278 5.0 10.0 0.00 0.00 0.00 86 1017.2
20240623114536 79 265 6.0 8.0 0.00 0.00 0.00 87 1017.1
20240623114028 79 228 4.0 7.0 0.00 0.00 0.00 88 1017.2
20240623113528 79 221 3.0 9.0 0.00 0.00 0.00 88 1017.2
20240623113036 79 265 4.0 9.0 0.00 0.00 0.00 88 1017.1
20240623112528 78 229 5.0 8.0 0.00 0.00 0.00 88 1017.0
20240623112028 78 231 3.0 8.0 0.00 0.00 0.00 89 1017.0
20240623111532 78 231 4.0 7.0 0.00 0.00 0.00 89 1017.0
20240623111033 78 266 3.0 5.0 0.00 0.00 0.00 89 1017.1
20240623110535 78 246 2.0 7.0 0.00 0.00 0.00 90 1017.1
20240623110037 78 238 4.0 7.0 0.00 0.00 0.00 90 1017.1
20240623105533 78 214 3.0 5.0 0.00 0.00 0.00 90 1017.1
20240623105031 77 266 2.0 5.0 0.00 0.00 0.00 91 1017.1
20240623104539 77 251 1.0 5.0 0.00 0.00 0.00 91 1017.2
20240623104031 77 259 3.0 5.0 0.00 0.00 0.00 91 1017.1
20240623103530 77 262 2.0 3.0 0.00 0.00 0.00 91 1017.1
20240623103036 77 250 2.0 3.0 0.00 0.00 0.00 91 1017.2
20240623102528 77 234 1.0 3.0 0.00 0.00 0.00 91 1017.1
20240623102031 77 267 1.0 2.0 0.00 0.00 0.00 91 1017.1
20240623101536 77 249 1.0 3.0 0.00 0.00 0.00 91 1017.1
20240623101030 77 264 1.0 4.0 0.00 0.00 0.00 91 1017.1
20240623100531 77 260 2.0 4.0 0.00 0.00 0.00 91 1017.1
20240623100037 77 238 2.0 6.0 0.00 0.00 0.00 91 1017.1
20240623095528 77 245 1.0 6.0 0.00 0.00 0.00 91 1017.1
20240623095031 77 223 2.0 6.0 0.00 0.00 0.00 91 1017.2
20240623094532 77 238 2.0 5.0 0.00 0.00 0.00 91 1017.2
20240623094030 77 231 2.0 6.0 0.00 0.00 0.00 91 1017.1
20240623093530 77 239 3.0 6.0 0.00 0.00 0.00 92 1017.2
20240623093032 77 227 3.0 5.0 0.00 0.00 0.00 92 1017.2
20240623092533 77 231 3.0 5.0 0.00 0.00 0.00 92 1017.2
20240623092030 77 237 3.0 4.0 0.00 0.00 0.00 92 1017.2
20240623091530 77 238 2.0 6.0 0.00 0.00 0.00 92 1017.1
20240623091031 77 235 3.0 6.0 0.00 0.00 0.00 91 1017.1
20240623090530 77 239 3.0 6.0 0.00 0.00 0.00 92 1017.0
20240623090036 77 205 4.0 6.0 0.00 0.00 0.00 92 1017.1
20240623085529 77 223 2.0 6.0 0.00 0.00 0.00 92 1017.0
20240623085028 77 214 3.0 6.0 0.00 0.00 0.00 92 1017.1
20240623084545 77 224 3.0 5.0 0.00 0.00 0.00 92 1017.1
20240623084030 77 249 2.0 5.0 0.00 0.00 0.00 91 1017.1
20240623083530 77 231 3.0 7.0 0.00 0.00 0.00 92 1017.0
20240623083032 77 243 3.0 7.0 0.00 0.00 0.00 91 1017.1
20240623082528 77 258 3.0 7.0 0.00 0.00 0.00 91 1017.1
20240623082028 77 225 1.0 5.0 0.00 0.00 0.00 91 1017.0
20240623081541 77 236 3.0 6.0 0.00 0.00 0.00 91 1017.1
20240623081028 77 239 3.0 6.0 0.00 0.00 0.00 91 1017.0
20240623080530 77 238 3.0 5.0 0.00 0.00 0.00 91 1017.0
20240623080036 77 251 3.0 6.0 0.00 0.00 0.00 91 1017.0
20240623075531 77 243 4.0 6.0 0.00 0.00 0.00 91 1017.1
20240623075028 77 243 3.0 6.0 0.00 0.00 0.00 91 1017.1
20240623074540 77 228 3.0 6.0 0.00 0.00 0.00 91 1017.1
20240623074028 77 219 3.0 7.0 0.00 0.00 0.00 91 1017.2
20240623073528 77 256 4.0 7.0 0.00 0.00 0.00 91 1017.2
20240623073039 77 221 3.0 6.0 0.00 0.00 0.00 91 1017.2
20240623072528 77 245 3.0 6.0 0.00 0.00 0.00 91 1017.2
20240623072028 77 208 4.0 5.0 0.00 0.00 0.00 91 1017.2
20240623071535 77 238 3.0 7.0 0.00 0.00 0.00 91 1017.1
20240623071028 77 221 4.0 7.0 0.00 0.00 0.00 91 1017.2
20240623070528 77 229 4.0 7.0 0.00 0.00 0.00 91 1017.3
20240623070042 77 238 3.0 6.0 0.00 0.00 0.00 90 1017.3
20240623065533 77 244 3.0 7.0 0.00 0.00 0.00 90 1017.4
20240623065029 78 245 4.0 8.0 0.00 0.00 0.00 90 1017.3
20240623064539 78 217 5.0 8.0 0.00 0.00 0.00 90 1017.3
20240623064029 78 231 3.0 7.0 0.00 0.00 0.00 90 1017.4
20240623063528 78 228 4.0 7.0 0.00 0.00 0.00 90 1017.4
20240623063033 78 256 3.0 7.0 0.00 0.00 0.00 90 1017.5
20240623062528 78 225 4.0 7.0 0.00 0.00 0.00 90 1017.5
20240623062029 78 229 3.0 8.0 0.00 0.00 0.00 90 1017.6
20240623061533 78 236 4.0 11.0 0.00 0.00 0.00 90 1017.7
20240623061030 78 223 4.0 11.0 0.00 0.00 0.00 90 1017.6
20240623060528 78 255 3.0 9.0 0.00 0.00 0.00 90 1017.5
20240623060100 78 240 5.0 9.0 0.00 0.00 0.00 90 1017.7
20240623055528 78 228 4.0 8.0 0.00 0.01 0.00 90 1017.7
20240623055029 78 230 4.0 10.0 0.00 0.01 0.00 90 1017.7
20240623054532 78 224 4.0 10.0 0.00 0.01 0.00 90 1017.8
20240623054028 78 221 4.0 10.0 0.00 0.01 0.00 90 1017.9
20240623053527 78 236 5.0 9.0 0.00 0.01 0.00 90 1018.0
20240623053037 78 245 5.0 8.0 0.00 0.01 0.00 90 1017.9
20240623052530 78 248 4.0 8.0 0.00 0.01 0.00 91 1018.0
20240623052028 78 240 5.0 10.0 0.00 0.01 0.00 91 1018.0
20240623051541 78 236 5.0 10.0 0.00 0.01 0.00 91 1018.1
20240623051031 78 231 3.0 8.0 0.00 0.01 0.00 91 1018.1
20240623050528 78 228 4.0 8.0 0.00 0.01 0.00 91 1018.2
20240623050044 78 211 5.0 8.0 0.00 0.01 0.00 91 1018.4
20240623045528 78 214 3.0 6.0 0.00 0.01 0.00 91 1018.4
20240623045028 78 248 3.0 7.0 0.00 0.01 0.00 91 1018.4
20240623044535 78 219 4.0 7.0 0.00 0.01 0.00 91 1018.4
20240623044028 78 221 3.0 7.0 0.00 0.01 0.00 91 1018.4
20240623043530 78 246 5.0 8.0 0.00 0.01 0.00 91 1018.5
20240623043043 78 252 5.0 8.0 0.00 0.01 0.00 90 1018.5
20240623042527 78 218 3.0 7.0 0.00 0.01 0.00 90 1018.6
20240623042028 78 238 3.0 7.0 0.00 0.01 0.00 90 1018.6
20240623041532 78 255 4.0 6.0 0.00 0.01 0.00 90 1018.5
20240623041027 78 221 5.0 8.0 0.00 0.01 0.00 90 1018.6
20240623040528 78 224 5.0 8.0 0.00 0.01 0.00 90 1018.5
20240623040044 78 245 4.0 7.0 0.00 0.01 0.00 90 1018.5
20240623035530 78 236 4.0 7.0 0.00 0.01 0.01 90 1018.5
20240623035028 78 244 3.0 8.0 0.00 0.01 0.01 89 1018.5
20240623034539 78 252 4.0 8.0 0.00 0.01 0.01 89 1018.6
20240623034028 78 239 4.0 8.0 0.00 0.01 0.01 89 1018.5
20240623033530 78 210 5.0 8.0 0.00 0.01 0.01 89 1018.6
20240623033031 78 229 3.0 7.0 0.00 0.01 0.01 89 1018.5
20240623032527 78 218 3.0 10.0 0.00 0.01 0.01 89 1018.5
20240623032028 78 227 3.0 10.0 0.00 0.01 0.01 89 1018.5
20240623031541 78 224 4.0 8.0 0.00 0.01 0.01 89 1018.5
20240623031028 78 242 4.0 10.0 0.00 0.01 0.01 89 1018.6
20240623030527 78 229 4.0 10.0 0.00 0.01 0.01 89 1018.6
20240623030033 79 203 4.0 7.0 0.00 0.01 0.01 89 1018.5
20240623025527 79 267 4.0 7.0 0.00 0.01 0.01 88 1018.5
20240623025028 79 230 4.0 9.0 0.00 0.01 0.01 88 1018.5
20240623024534 79 210 4.0 9.0 0.00 0.01 0.01 88 1018.6
20240623024030 79 262 5.0 8.0 0.00 0.01 0.01 88 1018.7
20240623023529 79 227 4.0 7.0 0.00 0.01 0.01 88 1018.6
20240623023033 79 227 4.0 7.0 0.00 0.01 0.01 88 1018.6
20240623022528 79 231 4.0 9.0 0.00 0.01 0.01 88 1018.5
20240623022028 79 236 3.0 9.0 0.00 0.01 0.01 88 1018.5
20240623021538 79 210 4.0 9.0 0.00 0.01 0.01 88 1018.5
20240623021028 79 227 4.0 9.0 0.00 0.01 0.01 87 1018.3
20240623020528 79 236 5.0 10.0 0.00 0.01 0.01 87 1018.3
20240623020039 79 205 5.0 10.0 0.00 0.01 0.01 87 1018.4
20240623015529 79 226 5.0 9.0 0.00 0.01 0.01 87 1018.3
20240623015029 79 225 7.0 9.0 0.00 0.01 0.01 87 1018.3
20240623014532 79 226 4.0 9.0 0.00 0.01 0.01 86 1018.3
20240623014029 79 233 4.0 9.0 0.00 0.01 0.01 86 1018.3
20240623013528 79 200 6.0 9.0 0.00 0.01 0.01 86 1018.2
20240623013053 79 198 4.0 8.0 0.00 0.01 0.01 86 1018.2
20240623012528 79 231 4.0 10.0 0.00 0.01 0.01 86 1018.1
20240623012028 79 215 4.0 10.0 0.00 0.01 0.01 86 1018.2
20240623011538 79 243 5.0 10.0 0.00 0.01 0.01 85 1018.1
20240623011028 80 228 4.0 10.0 0.00 0.01 0.01 85 1018.0
20240623010528 80 231 5.0 10.0 0.00 0.01 0.01 85 1017.9
20240623010031 80 226 5.0 9.0 0.00 0.01 0.01 85 1018.0
20240623005529 80 236 5.0 9.0 0.00 0.01 0.01 84 1018.0
20240623005032 80 231 5.0 11.0 0.00 0.01 0.01 84 1018.1
20240623004535 80 238 6.0 13.0 0.00 0.01 0.01 83 1017.9
20240623004032 80 260 5.0 13.0 0.00 0.01 0.01 82 1017.9
20240623003533 80 255 8.0 13.0 0.00 0.01 0.01 81 1018.0
20240623003031 81 223 5.0 10.0 0.00 0.01 0.01 80 1017.9
20240623002534 81 233 6.0 10.0 0.00 0.01 0.01 79 1018.0
20240623002032 81 158 3.0 8.0 0.00 0.01 0.01 79 1017.9
20240623001538 81 214 5.0 9.0 0.00 0.01 0.01 78 1017.9
20240623001031 82 256 5.0 11.0 0.00 0.01 0.01 77 1017.9
20240623000532 82 217 4.0 11.0 0.00 0.01 0.01 76 1017.8
20240623000040 82 215 6.0 12.0 0.00 0.01 0.01 76 1017.8
20240622235532 82 240 7.0 12.0 0.00 0.01 0.01 75 1017.8
20240622235035 83 195 6.0 12.0 0.00 0.01 0.01 74 1017.7
20240622234533 83 202 5.0 12.0 0.00 0.01 0.01 74 1017.7
20240622234032 83 269 5.0 15.0 0.00 0.01 0.01 74 1017.6
20240622233530 83 230 7.0 15.0 0.00 0.01 0.01 73 1017.5
20240622233035 83 218 7.0 11.0 0.00 0.01 0.01 73 1017.6
20240622232534 83 225 6.0 14.0 0.00 0.01 0.01 73 1017.6
20240622232034 83 207 6.0 14.0 0.00 0.01 0.01 72 1017.8
20240622231533 83 228 8.0 14.0 0.00 0.01 0.01 72 1017.8
20240622231031 83 223 8.0 14.0 0.00 0.01 0.01 72 1017.8
20240622230530 84 231 8.0 15.0 0.00 0.01 0.01 71 1017.7
20240622230040 84 221 10.0 17.0 0.00 0.01 0.01 71 1017.4
20240622225532 84 224 9.0 17.0 0.00 0.01 0.01 71 1017.6
20240622225035 84 248 9.0 15.0 0.00 0.01 0.01 70 1017.4
20240622224533 85 193 6.0 16.0 0.00 0.01 0.01 71 1017.5
20240622224031 85 246 8.0 16.0 0.00 0.01 0.01 70 1017.6
20240622223531 85 216 10.0 16.0 0.00 0.01 0.01 70 1017.5
20240622223038 85 199 7.0 14.0 0.00 0.01 0.01 70 1017.3
20240622222531 85 240 7.0 17.0 0.00 0.01 0.01 69 1017.4
20240622222032 85 251 9.0 17.0 0.00 0.01 0.01 69 1017.3
20240622221532 85 223 9.0 17.0 0.00 0.01 0.01 69 1017.4
20240622221032 86 244 7.0 13.0 0.00 0.01 0.01 69 1017.2
20240622220532 86 233 7.0 11.0 0.00 0.01 0.01 68 1017.4
20240622220036 86 229 5.0 12.0 0.00 0.01 0.01 67 1017.4
20240622215532 86 186 7.0 13.0 0.00 0.02 0.01 67 1017.3
20240622215032 86 248 8.0 13.0 0.00 0.02 0.01 67 1017.3
20240622214532 86 184 7.0 13.0 0.00 0.02 0.01 66 1017.4
20240622214028 86 250 6.0 14.0 0.00 0.02 0.01 67 1017.4
20240622213529 86 138 8.0 14.0 0.00 0.02 0.01 68 1017.5
20240622213034 87 212 6.0 13.0 0.00 0.02 0.01 68 1017.5
20240622212532 86 152 7.0 13.0 0.00 0.02 0.01 68 1017.6
20240622212028 86 281 7.0 14.0 0.00 0.02 0.01 68 1017.7
20240622211535 86 168 8.0 15.0 0.00 0.02 0.01 69 1017.8
20240622211031 86 223 9.0 15.0 0.00 0.02 0.01 68 1017.8
20240622210528 87 198 6.0 14.0 0.00 0.02 0.01 67 1017.7
20240622210038 87 221 5.0 14.0 0.00 0.02 0.01 69 1017.9
20240622205528 86 153 8.0 15.0 0.00 0.02 0.01 68 1017.9
20240622205029 87 147 7.0 15.0 0.00 0.02 0.01 67 1017.9
20240622204533 87 266 9.0 16.0 0.00 0.02 0.01 65 1017.9
20240622204031 87 224 7.0 16.0 0.00 0.02 0.01 67 1017.9
20240622203533 87 200 10.0 16.0 0.00 0.02 0.01 65 1018.1
20240622203033 87 260 9.0 14.0 0.00 0.02 0.01 65 1018.2
20240622202529 87 271 10.0 15.0 0.00 0.02 0.01 64 1018.2
20240622202029 87 243 8.0 15.0 0.00 0.02 0.01 66 1018.3
20240622201535 88 249 8.0 15.0 0.00 0.02 0.01 63 1018.2
20240622201028 87 216 7.0 15.0 0.00 0.02 0.01 64 1018.3
20240622200531 88 256 8.0 13.0 0.00 0.02 0.01 61 1018.4
20240622200038 88 210 7.0 14.0 0.00 0.02 0.01 63 1018.4
20240622195529 87 238 9.0 15.0 0.00 0.02 0.01 63 1018.4
20240622195028 88 229 8.0 15.0 0.00 0.02 0.01 62 1018.5
20240622194529 88 255 9.0 15.0 0.00 0.02 0.01 62 1018.5
20240622194030 88 259 9.0 14.0 0.00 0.02 0.01 64 1018.6
20240622193529 88 210 9.0 14.0 0.00 0.02 0.01 64 1018.7
20240622193035 88 152 6.0 14.0 0.00 0.02 0.01 64 1018.6
20240622192529 88 143 6.0 14.0 0.00 0.02 0.01 65 1018.6
20240622192029 88 193 6.0 14.0 0.00 0.02 0.01 65 1018.8
20240622191537 88 138 7.0 14.0 0.00 0.02 0.01 64 1018.8
20240622191029 88 202 5.0 15.0 0.00 0.02 0.01 65 1018.9
20240622190533 88 226 9.0 15.0 0.00 0.02 0.01 64 1019.0
20240622190045 88 160 10.0 15.0 0.00 0.02 0.01 64 1019.0
20240622185528 88 211 7.0 13.0 0.00 0.02 0.01 65 1019.1
20240622185028 88 239 7.0 13.0 0.00 0.02 0.01 65 1019.1
20240622184543 88 223 7.0 12.0 0.00 0.02 0.01 66 1018.9
20240622184029 88 215 7.0 13.0 0.00 0.02 0.01 65 1019.1
20240622183529 87 152 7.0 13.0 0.00 0.02 0.01 66 1019.0
20240622183031 87 219 6.0 13.0 0.00 0.02 0.01 66 1019.1